Wetbulb
56.89 56.49 56.34 55.36 53.59 52.96 52.32 54.07 53.15 52.80 52.00 51.03 49.68 49.76 50.45 50.10 51.21 52.74 53.67 59.41 61.52 61.98 61.46 61.09 59.74 57.73 57.61 56.56 55.20 53.85 53.24 53.28 52.81 52.55 52.33 52.45 53.17 52.69 52.32 52.01 51.62 51.56 51.48
57.00 56.59 56.61 54.11 53.48 53.78 52.58 54.59 52.93 52.03 50.46 48.89 48.78 48.94 49.07 50.79 51.08 52.47 53.57 56.97 60.73 61.39 61.32 60.73 59.81 58.23 56.70 55.95 54.08 52.69 52.68 51.78 51.18 51.23 51.39 51.42 50.78 50.63 50.42 50.69 50.55 50.47 50.65
58.34 58.31 58.01 55.69 55.01 55.15 55.32 54.32 53.25 51.96 50.03 49.63 48.09 47.94 47.83 50.27 50.50 51.61 52.95 53.72 56.51 59.27 60.04 60.52 58.78 57.96 56.56 54.98 53.12 52.15 50.61 49.96 50.01 50.27 50.06 49.32 49.13 49.22 49.18 49.17 49.19 49.26 49.36
59.77 58.80 59.18 57.81 56.94 55.89 55.55 54.13 52.43 50.43 49.65 47.96 46.41 46.61 46.70 47.11 49.06 50.35 51.70 51.63 52.11 53.28 56.84 58.31 58.10 56.21 55.29 54.37 52.92 50.93 49.63 49.14 49.19 49.07 48.29 48.39 48.29 48.40 48.32 48.22 48.16 48.12 48.32
59.31 58.47 57.87 57.68 56.92 55.51 53.42 53.39 51.11 50.46 47.81 46.51 46.53 45.85 45.52 45.40 45.86 50.39 49.92 50.31 49.87 50.03 49.98 55.90 56.09 55.55 54.61 53.45 51.34 49.62 49.33 48.60 48.40 47.53 47.39 47.55 47.40 47.36 47.07 47.18 47.20 47.20 47.42
59.59 59.14 57.81 57.92 56.43 54.44 52.94 52.01 50.98 50.20 48.76 47.54 48.98 46.71 44.21 45.05 44.78 44.81 46.70 49.90 48.46 48.37 47.93 48.95 50.02 49.65 53.25 51.40 50.32 49.70 49.13 48.86 47.97 46.84 46.94 46.12 45.73 45.61 45.61 45.85 46.27 46.19 46.41
60.24 58.72 57.83 57.60 55.80 55.13 54.45 52.90 50.61 48.35 46.40 46.22 44.34 43.42 43.74 44.17 44.19 43.69 43.30 44.63 45.83 47.20 46.06 45.92 44.55 42.82 46.44 51.89 49.94 49.70 49.61 49.12 47.89 46.75 46.18 44.76 44.14 44.18 44.56 45.03 45.28 45.50 45.65
60.42 59.54 58.10 57.36 55.79 54.44 53.50 51.82 49.86 46.51 45.69 45.04 43.37 43.40 41.61 44.07 43.75 44.43 43.07 43.29 42.83 46.78 45.70 44.13 42.65 41.81 42.14 43.20 43.39 49.69 49.92 49.56 48.14 47.68 46.09 44.75 43.94 44.03 44.06 44.51 44.75 44.92 45.21
60.42 60.33 58.35 57.31 55.71 55.18 53.87 51.68 49.49 47.89 45.62 44.74 45.59 44.59 41.08 40.99 42.10 43.05 43.82 43.74 44.12 42.14 42.40 42.83 42.44 42.57 42.22 40.80 44.77 47.76 50.07 49.29 48.47 48.61 46.91 45.29 44.15 44.02 44.01 44.07 44.04 44.31 44.54
59.99 59.50 58.97 57.30 55.57 55.11 53.65 52.85 49.94 47.70 47.84 46.41 47.79 49.07 48.14 46.25 41.99 40.26 42.31 44.98 44.44 42.56 41.16 40.97 41.54 41.46 41.32 39.89 43.12 44.98 48.24 47.71 48.31 48.27 47.15 46.00 44.59 43.93 43.65 43.76 43.68 44.10 43.96
59.46 58.37 58.39 57.62 55.99 55.16 54.83 53.29 49.53 48.43 49.84 49.41 48.98 47.31 47.81 47.68 45.79 43.67 41.09 42.67 43.11 43.30 42.67 41.51 41.70 40.96 41.05 39.71 39.24 42.39 47.07 46.36 47.03 47.11 46.88 45.98 45.16 44.33 43.49 43.47 43.45 43.37 43.19
58.97 58.64 58.50 58.57 57.12 56.63 55.22 53.58 51.66 49.29 49.28 48.55 48.51 48.80 48.16 46.91 46.39 44.83 42.14 41.64 41.01 42.37 41.35 41.02 40.37 40.14 39.90 39.93 42.06 44.56 46.54 45.45 45.62 46.23 45.86 45.25 45.08 44.51 44.08 43.52 43.00 42.52 42.15
56.40 57.99 59.14 58.21 57.05 55.07 54.43 53.52 51.27 50.52 48.86 48.35 47.92 48.69 49.15 48.39 47.48 46.69 44.18 43.39 39.52 39.08 37.85 39.41 40.85 41.73 42.16 38.97 40.25 45.23 46.89 44.60 44.40 45.25 44.73 44.54 44.17 43.79 43.30 42.85 42.42 41.41 41.34
59.01 59.30 59.38 58.34 57.17 53.11 52.34 52.79 50.62 50.45 48.74 48.79 48.60 48.76 49.01 48.92 48.03 46.56 43.45 41.63 36.88 36.56 36.22 39.00 39.42 38.71 38.66 38.43 39.20 45.48 43.36 44.09 43.41 43.40 44.01 44.12 43.50 43.01 42.44 41.81 41.16 40.45 40.38
59.42 58.57 57.35 55.78 54.12 53.17 52.48 51.26 50.28 48.64 48.83 48.54 48.59 48.59 47.95 47.90 47.79 46.32 43.82 42.02 39.23 34.75 35.25 36.57 37.40 39.32 38.78 38.40 38.86 41.61 40.33 44.28 42.96 42.09 42.37 43.18 43.48 42.58 41.94 41.63 40.67 40.02 39.48
55.90 55.62 54.39 53.52 51.71 51.35 50.04 50.30 49.42 48.21 48.06 48.31 47.94 47.04 46.86 46.87 45.62 44.80 43.76 42.91 40.94 38.23 34.87 34.81 35.73 36.85 37.23 38.71 38.53 39.93 39.83 41.93 42.71 41.55 41.31 41.52 42.03 42.53 42.27 41.54 40.42 39.63 39.29
56.26 54.57 53.21 51.69 50.81 50.54 49.32 48.53 47.83 47.76 47.51 46.96 46.80 46.48 45.52 45.09 44.39 44.07 43.95 43.61 42.12 39.17 36.82 34.78 34.13 35.38 34.07 34.65 35.98 38.73 38.30 37.49 38.26 41.83 41.24 40.79 40.48 40.68 41.02 41.06 40.66 39.77 39.12
57.00 55.72 53.45 53.27 51.05 49.29 48.85 47.42 46.77 47.35 46.43 45.37 45.10 44.67 44.13 44.91 43.27 43.43 43.16 41.99 41.35 40.80 38.22 36.26 33.45 32.91 33.03 34.24 33.84 33.09 37.39 37.63 36.68 38.81 41.47 40.78 40.41 39.99 39.83 39.52 39.32 39.13 38.98
57.30 54.21 53.83 52.08 50.09 49.26 47.66 46.71 46.71 46.11 45.53 45.28 44.78 44.09 43.66 43.12 41.49 41.72 41.60 41.11 39.89 39.43 36.69 32.85 35.84 33.60 33.53 34.25 35.34 36.60 35.02 36.40 37.94 40.23 39.75 40.04 40.34 40.00 39.55 39.14 39.18 38.89 38.68
53.56 52.80 51.29 50.35 48.67 47.39 46.80 46.32 45.69 45.14 44.63 44.59 44.38 43.81 43.19 42.01 41.51 41.32 40.58 39.24 39.05 37.08 37.07 36.40 36.01 35.90 35.30 37.76 35.19 36.77 37.82 37.65 35.62 38.08 39.35 38.59 39.10 39.58 39.56 39.43 39.00 38.90 38.76
51.58 50.53 49.85 48.47 46.70 46.09 45.56 45.21 44.78 44.10 43.70 43.30 43.35 42.70 42.55 42.47 41.49 40.14 40.15 39.17 38.27 37.99 37.94 36.96 35.32 34.97 36.17 35.81 34.73 34.95 34.65 35.49 35.70 33.27 34.57 33.62 34.39 34.77 35.85 38.06 37.78 39.00 38.72
47.71 46.29 45.91 45.11 44.53 44.91 40.44 41.42 43.20 43.29 42.91 41.95 40.91 40.80 40.74 40.66 40.67 37.58 35.46 35.19 34.07 30.56 28.97 28.71 29.36 29.84 30.72 30.87 32.66 32.15 33.31 32.78 31.96 34.90 30.08 30.79 30.34 30.05 30.73 31.54 34.33 35.35 35.95
44.03 43.36 43.52 43.83 42.81 43.26 39.69 40.34 39.98 41.77 40.39 39.33 37.99 38.08 39.32 38.52 35.91 34.25 32.79 32.35 31.53 32.77 32.82 29.23 27.40 27.50 29.11 29.83 32.94 32.51 32.83 33.11 32.09 34.39 27.44 30.13 26.44 28.72 30.22 32.39 34.03 35.15 35.99
41.16 38.92 38.61 39.36 39.38 39.43 38.41 38.14 36.83 36.81 35.46 37.06 37.87 35.62 33.76 32.25 32.88 30.11 28.06 26.51 26.16 26.70 26.23 27.01 24.94 25.73 26.49 28.17 28.38 29.22 28.21 28.91 30.94 33.72 30.87 29.96 32.53 29.37 30.70 31.05 34.20 35.56 35.96
38.48 38.16 39.02 38.16 37.85 37.16 37.45 36.61 35.62 34.79 33.58 31.54 32.19 32.31 30.86 28.55 30.67 30.61 26.66 24.83 24.46 25.29 29.36 30.55 31.06 31.84 31.95 32.22 31.93 29.62 26.89 26.38 24.79 27.53 30.21 28.97 30.34 29.29 26.99 26.89 27.28 33.52 35.19
38.18 38.96 37.76 37.31 36.57 35.25 36.65 36.84 36.36 32.65 28.78 27.75 27.27 27.04 28.73 27.89 28.92 28.33 25.10 24.03 23.94 24.49 25.22 25.30 25.75 27.72 29.55 29.09 31.39 29.61 28.54 26.97 27.39 26.29 28.53 27.32 29.55 27.25 24.40 24.02 24.36 24.66 26.01
MSLP
1020.69 1021.08 1021.24 1021.80 1022.34 1022.76 1023.08 1023.41 1023.70 1024.03 1024.26 1024.44 1024.76 1024.97 1025.55 1025.87 1026.00 1026.21 1026.10 1026.07 1025.94 1026.25 1026.38 1026.65 1027.15 1027.57 1027.70 1027.87 1027.87 1027.86 1028.01 1028.31 1028.42 1028.55 1028.42 1028.25 1028.35 1028.41 1028.45 1028.49 1028.49 1028.34 1028.23
1020.65 1020.76 1021.45 1021.91 1022.34 1022.60 1022.97 1023.17 1023.47 1023.87 1024.23 1024.48 1024.78 1025.15 1025.53 1025.85 1026.11 1026.31 1026.36 1026.29 1026.09 1026.41 1026.43 1026.68 1027.03 1027.44 1027.83 1027.99 1028.06 1028.05 1028.06 1028.31 1028.58 1028.60 1028.75 1028.75 1028.79 1028.79 1028.77 1028.76 1028.74 1028.61 1028.44
1020.27 1020.73 1021.31 1021.89 1022.20 1022.42 1022.73 1023.10 1023.52 1023.81 1024.23 1024.55 1024.75 1025.01 1025.45 1025.80 1026.22 1026.36 1026.25 1026.37 1026.28 1026.52 1026.68 1026.77 1027.17 1027.35 1027.72 1027.92 1028.13 1028.38 1028.41 1028.42 1028.56 1028.65 1028.93 1029.10 1029.17 1029.19 1029.15 1029.05 1028.91 1028.77 1028.60
1019.98 1020.65 1020.90 1021.42 1021.85 1022.33 1022.71 1023.04 1023.30 1023.97 1024.30 1024.48 1024.86 1025.19 1025.34 1025.71 1026.05 1026.21 1026.21 1026.38 1026.47 1026.67 1026.82 1026.90 1027.15 1027.54 1027.65 1028.04 1028.21 1028.24 1028.65 1028.71 1028.66 1028.74 1029.02 1029.28 1029.36 1029.41 1029.37 1029.21 1029.05 1028.90 1028.70
1019.85 1020.07 1020.54 1021.04 1021.40 1022.10 1022.51 1022.66 1023.31 1023.52 1024.22 1024.55 1024.83 1025.11 1025.33 1025.52 1025.68 1025.64 1026.00 1026.29 1026.63 1026.76 1027.18 1027.18 1027.26 1027.57 1027.66 1028.00 1028.38 1028.28 1028.51 1028.66 1028.71 1028.83 1029.10 1029.33 1029.48 1029.52 1029.47 1029.35 1029.19 1029.01 1028.79
1019.63 1019.88 1020.32 1020.81 1021.16 1021.70 1022.21 1022.50 1023.05 1023.48 1023.75 1024.09 1024.65 1025.01 1025.33 1025.45 1025.67 1025.69 1025.86 1026.14 1026.49 1026.61 1026.89 1027.12 1027.31 1027.54 1027.59 1027.71 1028.15 1028.18 1028.27 1028.30 1028.64 1028.89 1029.12 1029.27 1029.38 1029.46 1029.42 1029.26 1029.14 1028.99 1028.82
1019.38 1019.82 1019.95 1020.52 1020.81 1021.29 1021.74 1022.01 1022.67 1023.21 1023.69 1024.12 1024.94 1025.47 1025.54 1025.64 1025.71 1025.57 1025.74 1026.18 1026.35 1026.22 1026.61 1026.89 1027.25 1027.45 1027.59 1027.55 1027.85 1027.95 1027.92 1028.05 1028.43 1028.78 1029.03 1029.10 1029.22 1029.28 1029.22 1029.14 1028.98 1028.81 1028.65
1019.05 1019.55 1019.73 1020.02 1020.28 1021.01 1021.31 1021.74 1022.19 1023.10 1023.62 1024.05 1024.90 1025.71 1026.06 1025.89 1025.70 1025.69 1025.84 1025.97 1026.14 1025.97 1026.19 1026.44 1026.85 1027.11 1027.37 1027.48 1027.61 1027.61 1027.56 1027.66 1028.09 1028.43 1028.65 1028.85 1029.01 1029.00 1028.95 1028.86 1028.75 1028.60 1028.41
1018.73 1018.85 1019.40 1019.71 1020.02 1020.29 1020.85 1021.24 1021.71 1022.36 1023.45 1024.13 1024.19 1024.74 1026.07 1026.03 1025.90 1025.64 1025.70 1025.76 1025.73 1025.96 1025.88 1025.94 1026.28 1026.54 1026.92 1027.13 1027.19 1027.27 1027.24 1027.35 1027.71 1027.96 1028.21 1028.42 1028.58 1028.64 1028.61 1028.57 1028.48 1028.36 1028.18
1018.11 1018.43 1018.84 1019.26 1019.64 1020.01 1020.47 1020.78 1021.37 1021.98 1022.50 1023.42 1024.14 1024.50 1024.17 1024.48 1025.34 1025.89 1025.48 1025.29 1025.46 1025.62 1025.69 1025.79 1025.89 1026.05 1026.29 1026.60 1026.72 1026.90 1026.82 1027.01 1027.28 1027.48 1027.72 1027.90 1028.05 1028.14 1028.14 1028.14 1028.06 1027.92 1027.78
1017.74 1018.09 1018.35 1018.74 1019.22 1019.53 1019.91 1020.38 1021.06 1021.42 1021.66 1022.42 1022.99 1024.08 1024.19 1024.35 1024.54 1025.09 1025.52 1025.19 1025.32 1025.24 1025.24 1025.25 1025.27 1025.50 1025.69 1025.94 1026.25 1026.40 1026.38 1026.47 1026.73 1026.98 1027.16 1027.22 1027.46 1027.69 1027.69 1027.64 1027.53 1027.47 1027.42
1017.58 1017.65 1017.88 1018.25 1018.78 1019.05 1019.52 1019.94 1020.59 1020.87 1021.33 1021.81 1022.71 1022.99 1023.48 1024.04 1024.34 1024.59 1025.07 1025.07 1025.29 1025.07 1024.90 1024.93 1025.18 1025.29 1025.20 1025.22 1025.29 1025.49 1025.68 1025.86 1026.15 1026.44 1026.60 1026.64 1026.85 1027.02 1027.08 1027.03 1027.01 1026.99 1026.97
1016.83 1016.96 1017.29 1017.80 1018.24 1018.44 1018.88 1019.38 1020.09 1020.64 1021.02 1021.68 1022.28 1022.55 1022.91 1023.27 1023.68 1024.07 1024.48 1024.81 1025.10 1025.09 1025.01 1024.54 1024.45 1024.47 1024.58 1024.75 1024.65 1024.49 1024.69 1025.06 1025.44 1025.76 1026.01 1026.07 1026.16 1026.34 1026.42 1026.38 1026.34 1026.37 1026.37
1016.20 1016.36 1016.72 1016.96 1017.58 1018.07 1018.66 1018.95 1019.42 1020.13 1020.59 1021.27 1021.99 1022.43 1022.72 1023.04 1023.37 1023.87 1024.02 1024.52 1024.98 1025.24 1025.06 1024.48 1023.93 1023.94 1023.96 1023.88 1024.14 1024.23 1024.36 1024.47 1024.78 1025.03 1025.28 1025.30 1025.41 1025.67 1025.76 1025.82 1025.72 1025.64 1025.58
1015.28 1015.69 1015.97 1016.70 1017.37 1017.98 1018.66 1019.05 1019.37 1020.01 1020.38 1021.02 1021.55 1022.03 1022.48 1022.99 1023.39 1023.77 1024.19 1024.31 1024.71 1025.19 1024.95 1024.23 1023.91 1023.12 1023.22 1023.37 1023.41 1023.68 1023.95 1023.95 1024.10 1024.29 1024.52 1024.50 1024.59 1024.77 1024.88 1024.98 1024.92 1024.89 1024.81
1015.45 1015.90 1016.21 1016.65 1016.81 1017.49 1018.05 1018.96 1019.41 1019.86 1020.38 1020.95 1021.34 1022.00 1022.36 1022.70 1023.14 1023.40 1023.81 1024.32 1024.51 1024.50 1024.47 1024.28 1023.70 1023.13 1022.88 1022.83 1022.83 1023.03 1023.12 1023.16 1023.35 1023.50 1023.51 1023.46 1023.64 1023.80 1023.86 1023.80 1023.79 1023.89 1023.94
1014.99 1015.32 1016.33 1016.77 1016.96 1017.69 1018.30 1018.92 1019.25 1019.68 1020.15 1020.66 1021.18 1021.78 1022.21 1022.66 1022.96 1023.39 1023.44 1023.58 1023.91 1024.14 1023.97 1023.88 1023.77 1023.18 1022.94 1022.76 1022.49 1022.55 1022.65 1022.72 1022.51 1022.38 1022.38 1022.42 1022.55 1022.74 1022.90 1022.77 1022.72 1022.84 1022.97
1014.95 1014.36 1015.86 1016.31 1016.62 1017.17 1018.02 1018.57 1018.93 1019.35 1019.80 1020.35 1020.96 1021.54 1022.13 1022.57 1022.81 1022.98 1023.24 1023.43 1023.65 1023.65 1023.58 1023.42 1023.27 1023.25 1023.06 1022.69 1022.47 1022.43 1022.06 1021.79 1021.56 1021.30 1021.30 1021.25 1021.33 1021.54 1021.65 1021.81 1021.63 1021.85 1022.03
1012.79 1014.59 1015.17 1015.64 1015.98 1017.00 1017.74 1018.23 1018.69 1019.15 1019.60 1020.09 1020.76 1021.36 1022.02 1022.33 1022.54 1022.82 1023.13 1023.41 1023.33 1023.29 1023.25 1023.21 1022.81 1022.51 1022.37 1022.33 1022.20 1021.91 1021.55 1021.44 1021.12 1021.05 1021.01 1021.17 1020.97 1020.35 1020.08 1020.39 1020.48 1020.68 1020.88
1013.86 1014.31 1014.86 1015.31 1015.85 1016.81 1017.45 1018.01 1018.54 1019.04 1019.60 1020.14 1020.55 1021.10 1021.68 1021.88 1022.09 1022.37 1022.94 1023.22 1023.25 1023.22 1023.01 1022.79 1022.46 1022.19 1022.05 1021.72 1021.75 1021.64 1020.78 1020.41 1019.94 1019.65 1019.36 1019.06 1019.13 1018.90 1019.11 1019.40 1019.36 1019.62 1019.89
1013.33 1013.88 1014.58 1015.37 1016.05 1016.79 1017.21 1017.72 1018.36 1018.96 1019.49 1020.00 1020.54 1021.10 1021.41 1021.55 1021.86 1022.26 1022.94 1023.15 1023.29 1023.22 1023.04 1022.78 1022.47 1022.13 1021.68 1021.35 1021.38 1020.86 1020.49 1019.97 1019.34 1019.24 1018.98 1018.64 1018.54 1018.21 1017.92 1018.16 1018.70 1019.00 1019.14
1013.70 1014.43 1015.06 1015.52 1016.25 1016.78 1017.11 1017.79 1018.40 1018.93 1019.32 1019.94 1020.72 1021.26 1021.43 1021.57 1021.85 1022.51 1022.93 1023.34 1023.48 1023.40 1023.26 1023.22 1022.98 1022.54 1021.80 1021.50 1021.07 1020.74 1020.23 1019.67 1018.65 1017.76 1018.30 1017.82 1017.66 1017.35 1017.00 1017.29 1017.68 1018.56 1018.75
1014.28 1014.72 1015.23 1015.83 1016.47 1016.91 1017.46 1017.91 1018.29 1018.85 1019.54 1020.23 1020.94 1021.35 1021.65 1021.95 1022.30 1022.60 1023.01 1023.23 1023.24 1023.16 1023.07 1023.06 1022.74 1022.59 1021.97 1021.83 1021.31 1020.56 1020.12 1019.41 1018.28 1017.50 1017.48 1016.94 1016.85 1016.42 1016.16 1016.28 1016.76 1017.69 1017.48
1014.28 1015.18 1015.85 1016.29 1016.76 1017.19 1017.54 1018.10 1018.62 1019.25 1020.04 1020.66 1021.13 1021.46 1021.75 1022.19 1022.56 1022.93 1023.16 1023.24 1023.11 1023.01 1022.85 1022.69 1022.33 1021.83 1021.70 1021.36 1021.22 1020.50 1019.87 1019.07 1017.74 1016.71 1016.61 1016.08 1015.50 1015.31 1015.34 1015.20 1015.81 1016.27 1016.35
1015.34 1015.91 1016.32 1016.75 1017.12 1017.72 1018.05 1018.51 1019.05 1019.88 1020.69 1021.30 1021.64 1021.90 1022.12 1022.41 1022.67 1022.78 1022.79 1022.99 1023.11 1022.87 1022.44 1022.07 1021.73 1021.26 1020.82 1020.55 1020.31 1019.90 1019.15 1018.52 1017.04 1015.74 1015.18 1015.31 1014.60 1014.58 1015.03 1014.82 1015.30 1015.45 1015.41
1015.34 1015.94 1016.61 1017.16 1017.80 1018.51 1018.85 1019.28 1019.68 1020.45 1021.30 1021.90 1022.19 1022.40 1022.66 1022.76 1022.78 1022.81 1022.77 1022.69 1022.52 1022.40 1022.26 1021.88 1021.48 1020.88 1020.45 1019.99 1019.42 1019.11 1018.52 1017.65 1016.65 1015.23 1014.67 1014.95 1014.37 1014.90 1015.12 1014.39 1014.68 1014.83 1015.22
Wind_Speed
6 4 5 4 4 4 4 4 5 4 5 5 5 7 6 5 5 2 1 7 10 10 11 12 11 8 9 9 8 7 6 7 7 8 9 10 12 12 12 11 10 12 12
6 5 5 5 4 5 4 5 5 5 5 5 6 6 6 5 5 4 2 1 9 8 8 10 10 10 7 7 7 5 7 6 5 6 8 9 9 9 10 10 11 12 13
7 6 5 4 4 5 6 4 4 4 5 3 6 5 6 6 5 5 4 3 4 8 8 9 9 9 9 8 7 5 4 4 5 6 7 7 8 9 10 10 11 12 13
7 6 5 5 5 4 4 4 5 4 4 4 4 4 5 5 6 6 5 4 4 3 6 10 10 9 9 7 7 5 4 4 4 6 5 6 7 8 10 11 12 13 14
7 6 6 5 6 5 5 6 2 5 4 4 4 4 5 5 6 5 6 6 5 5 3 7 10 9 10 9 8 7 6 5 5 4 4 5 6 8 10 12 12 14 14
6 6 5 6 6 5 5 3 5 2 4 5 4 4 3 3 4 5 6 5 5 6 6 6 5 5 10 11 11 9 8 7 6 4 4 3 4 7 10 11 13 14 15
6 6 5 5 5 8 9 8 4 5 1 3 4 2 1 2 3 3 4 5 6 6 6 5 4 4 4 13 13 12 10 9 8 6 5 2 1 4 8 11 12 13 14
7 7 7 6 8 6 6 6 6 3 2 3 4 3 1 3 2 4 3 5 7 7 7 7 6 6 6 4 7 15 13 12 11 10 8 5 3 5 8 10 12 13 14
7 8 7 6 8 7 7 7 6 7 4 1 2 5 2 4 1 1 4 4 6 5 5 7 8 7 8 6 9 11 14 14 14 14 11 8 6 6 8 10 11 13 15
10 10 9 9 8 6 6 6 5 4 5 5 2 2 3 6 4 2 2 3 4 5 6 5 6 8 9 6 11 12 13 14 16 16 14 12 9 7 9 11 12 14 16
10 10 9 9 8 7 6 7 7 7 5 6 6 4 1 1 2 3 3 4 1 4 5 6 6 6 8 8 7 9 16 17 18 19 18 14 11 10 10 12 13 14 15
6 9 9 9 7 9 8 8 6 9 6 5 4 4 4 4 3 3 3 4 3 4 4 4 5 5 5 7 12 17 19 20 20 20 19 16 14 13 13 13 13 13 14
5 9 10 9 8 8 9 8 10 8 8 8 8 6 3 3 3 3 3 2 4 2 3 3 4 5 6 5 7 17 22 22 21 21 21 19 18 17 16 14 13 13 14
8 11 12 10 9 6 7 9 8 7 8 7 9 6 4 3 3 3 3 3 2 3 2 5 2 4 5 5 8 15 10 20 21 21 21 21 20 20 18 16 14 14 14
8 8 10 8 8 9 9 9 6 8 7 7 8 7 3 2 2 2 1 1 3 3 4 4 4 5 5 5 8 9 10 19 22 23 23 22 21 22 20 19 16 16 15
6 5 5 8 11 11 9 7 5 5 8 5 5 6 4 3 3 3 2 2 3 3 5 4 5 5 4 4 7 8 11 19 25 25 24 23 23 23 22 21 19 18 17
4 5 6 7 9 9 8 8 7 9 9 8 5 5 4 4 3 3 2 0 3 3 6 4 4 4 4 6 5 6 8 10 11 26 24 24 24 24 24 21 20 19 19
5 13 10 10 10 10 9 9 10 9 10 9 7 7 7 4 3 2 1 3 4 5 4 10 4 3 5 4 6 5 7 9 11 16 24 27 26 25 23 21 19 19 19
14 10 11 11 10 10 9 8 8 9 9 8 8 8 7 5 3 1 2 3 3 4 4 3 7 4 4 4 4 5 6 7 8 19 20 21 26 26 24 22 20 20 19
10 10 8 8 9 9 9 9 8 8 7 7 9 8 7 5 4 2 2 4 4 4 6 6 7 6 4 5 4 8 12 8 11 11 16 21 23 26 22 21 20 18 18
6 6 7 6 8 9 7 10 9 8 9 8 6 6 5 3 4 1 2 4 5 5 6 7 7 7 8 7 8 6 8 9 9 5 8 9 9 11 12 16 12 17 19
7 8 8 9 9 6 12 11 10 8 8 8 7 4 2 2 6 9 11 8 5 3 4 3 4 6 8 5 4 6 9 9 11 6 6 10 7 10 9 7 12 13 17
8 7 7 8 7 7 12 12 11 7 7 6 5 3 2 6 7 5 6 5 5 5 3 4 7 6 10 8 10 12 11 11 13 10 4 11 4 11 7 7 11 22 17
9 7 6 6 6 4 13 13 13 8 6 6 6 6 5 4 6 5 3 4 4 5 5 6 6 8 8 10 9 11 12 14 16 14 6 13 9 11 7 7 18 18 14
8 6 6 7 8 6 13 14 10 7 7 6 6 6 5 5 5 8 4 5 5 6 7 13 16 18 20 21 18 10 9 9 12 13 6 9 9 7 4 5 6 16 13
7 7 6 7 11 8 10 11 9 6 6 4 4 5 9 6 9 10 4 4 6 6 7 7 7 8 12 12 18 10 9 11 11 13 6 7 8 4 3 3 4 4 3
Wind_Direction
129 145 121 134 141 140 138 137 137 134 121 108 102 112 126 125 119 111 98 159 162 162 155 148 137 130 140 128 117 103 90 74 55 43 44 47 50 42 33 35 21 11 7
150 139 143 161 169 156 164 156 154 147 130 119 111 121 136 134 127 134 148 147 141 147 160 159 154 152 158 145 126 113 103 86 61 49 48 45 38 30 23 15 8 1 355
147 145 155 158 192 173 165 146 124 123 126 137 136 127 130 144 157 163 144 122 111 140 147 156 163 159 163 157 144 127 120 111 93 79 61 45 38 32 24 15 6 358 352
159 169 161 175 187 162 158 163 153 143 162 159 152 159 152 156 172 166 152 140 134 118 124 135 148 160 164 165 168 162 156 134 114 96 71 49 36 23 11 3 354 347 342
172 156 167 185 166 167 171 162 159 142 161 172 177 174 173 175 181 163 159 162 165 150 160 159 160 167 172 186 198 187 177 164 136 112 87 57 29 10 359 350 345 339 335
194 172 176 172 164 159 159 155 156 166 162 175 178 172 192 211 173 175 176 179 181 174 174 185 176 187 187 194 195 195 190 175 171 162 128 77 19 357 344 338 331 327 324
201 186 175 173 161 174 183 182 149 161 156 148 101 32 304 267 249 215 172 181 191 191 182 184 192 190 201 196 198 206 207 194 189 188 168 145 341 325 325 321 318 317 316
186 187 184 188 178 182 182 168 156 132 111 159 136 79 250 320 311 227 221 188 207 195 190 195 195 190 199 195 202 209 210 202 205 198 192 191 239 299 311 313 312 313 312
188 189 194 191 191 188 185 185 170 152 142 201 204 143 115 227 320 356 228 222 208 201 204 196 202 196 199 197 203 212 208 205 210 207 204 209 239 281 305 308 306 307 309
203 199 190 191 191 190 187 180 162 162 139 147 84 294 180 156 180 286 273 233 217 222 216 207 197 200 201 196 204 207 204 195 208 211 213 219 235 268 295 301 299 301 304
209 205 192 190 194 195 194 168 169 164 168 155 165 165 125 72 73 131 219 268 3 244 226 215 215 202 198 194 201 211 205 194 201 210 217 220 232 252 270 285 289 295 299
210 204 195 194 198 202 193 178 180 166 165 142 158 148 164 168 186 167 189 233 230 269 247 224 206 215 222 202 199 207 205 198 198 208 217 220 230 245 259 272 282 284 290
200 197 183 193 204 201 196 174 178 177 168 171 172 181 172 173 138 173 171 249 231 252 284 247 230 221 227 216 212 202 202 197 199 207 215 220 228 237 248 262 269 274 283
211 189 200 200 202 181 189 184 174 177 161 160 175 178 161 183 160 184 180 177 275 262 284 245 247 220 220 202 209 213 207 201 203 206 215 220 225 232 243 254 261 266 276
207 189 180 165 170 179 192 178 171 168 161 163 173 166 155 152 173 200 237 84 192 238 266 271 249 225 225 207 213 197 205 213 209 211 217 221 222 229 236 243 248 256 263
126 146 189 180 167 180 163 168 159 152 159 167 162 159 163 169 180 160 135 218 218 217 264 218 253 248 241 240 237 206 210 215 214 218 218 220 221 227 231 235 238 247 252
168 186 181 172 158 160 166 175 164 162 169 167 154 168 153 141 138 173 161 12 278 227 265 277 236 263 253 254 261 209 220 220 224 224 222 222 222 227 232 228 231 236 243
218 217 184 189 182 168 170 175 168 171 169 163 158 151 151 157 143 64 324 271 251 261 267 275 235 256 239 269 257 248 240 236 232 231 229 227 223 224 226 229 227 228 235
210 188 185 185 170 175 170 161 157 162 168 160 157 155 155 154 141 155 278 279 279 288 270 244 280 227 247 237 269 254 243 248 251 248 249 244 238 230 225 223 220 225 231
178 179 174 165 160 154 157 155 156 161 145 150 158 158 162 164 165 116 264 272 276 281 283 282 281 270 234 254 227 270 277 252 252 241 241 240 234 231 227 222 218 224 228
147 143 145 137 139 150 155 153 157 152 152 152 150 164 174 155 114 195 320 318 314 302 298 295 293 297 290 291 266 258 255 266 269 236 244 249 243 239 225 215 229 232 227
125 132 142 139 143 152 148 144 152 155 148 153 158 146 101 21 37 52 60 46 29 358 319 303 301 296 296 285 299 278 277 274 271 239 229 254 212 225 210 193 200 227 238
130 122 121 132 135 138 155 150 135 136 130 119 125 106 45 54 80 31 21 347 336 318 284 254 278 277 292 296 296 293 292 285 273 271 205 263 194 230 205 192 197 237 235
126 128 129 134 130 128 139 128 109 106 106 107 96 91 93 71 51 46 3 340 327 320 306 300 284 291 279 292 284 281 286 286 275 266 224 261 241 234 217 200 211 229 229
123 125 133 128 127 124 123 119 108 103 101 95 87 76 78 70 23 7 360 333 311 298 311 316 304 295 293 291 286 291 281 283 285 283 254 242 242 236 215 202 215 227 204
124 122 100 85 90 84 99 102 109 109 99 97 77 67 45 33 6 341 322 310 318 315 315 315 309 300 287 278 284 275 275 276 281 281 247 219 238 185 234 200 204 182 163